| time (UTC) | temp C | wind direction | speed KPH | gust KPH | rain 1hr cm | rain 24hr cm | rain mn cm | humidity % | barometer mb |
| 20260906150421 | 25 | 39 | 4.8 | 4.8 | 0.00 | 0.00 | 0.00 | 85 | 1017.4 |
| 20260906145921 | 25 | 35 | 4.8 | 9.7 | 0.00 | 0.00 | 0.00 | 85 | 1017.2 |
| 20260906145420 | 25 | 75 | 4.8 | 6.4 | 0.00 | 0.00 | 0.00 | 84 | 1017.3 |
| 20260906144915 | 25 | 42 | 11.3 | 17.7 | 0.00 | 0.00 | 0.00 | 86 | 1017.3 |
| 20260906144409 | 25 | 35 | 6.4 | 11.3 | 0.00 | 0.00 | 0.00 | 87 | 1017.1 |
| 20260906143905 | 24 | 47 | 12.9 | 14.5 | 0.00 | 0.00 | 0.00 | 88 | 1017.0 |
| 20260906143400 | 24 | 26 | 11.3 | 14.5 | 0.00 | 0.00 | 0.00 | 88 | 1017.1 |
| 20260906142856 | 25 | 39 | 11.3 | 11.3 | 0.00 | 0.00 | 0.00 | 88 | 1017.0 |
| 20260906142355 | 24 | 66 | 8.0 | 14.5 | 0.00 | 0.00 | 0.00 | 89 | 1017.1 |
| 20260906141850 | 24 | 64 | 3.2 | 17.7 | 0.00 | 0.00 | 0.00 | 90 | 1017.0 |
| 20260906141344 | 24 | 41 | 12.9 | 16.1 | 0.00 | 0.00 | 0.00 | 88 | 1017.1 |
| 20260906140844 | 24 | 68 | 4.8 | 12.9 | 0.00 | 0.00 | 0.00 | 89 | 1017.0 |
| 20260906140339 | 23 | 27 | 4.8 | 11.3 | 0.00 | 0.00 | 0.00 | 90 | 1016.9 |
| 20260906135836 | 23 | 15 | 9.7 | 16.1 | 0.00 | 0.00 | 0.00 | 90 | 1016.9 |
| 20260906135332 | 23 | 27 | 6.4 | 14.5 | 0.00 | 0.00 | 0.00 | 90 | 1017.1 |
| 20260906134827 | 24 | 69 | 4.8 | 9.7 | 0.00 | 0.00 | 0.00 | 90 | 1016.9 |
| 20260906134322 | 24 | 95 | 4.8 | 9.7 | 0.00 | 0.00 | 0.00 | 90 | 1016.9 |
| 20260906133817 | 23 | 32 | 9.7 | 9.7 | 0.00 | 0.00 | 0.00 | 91 | 1017.1 |
| 20260906133313 | 23 | 25 | 9.7 | 14.5 | 0.00 | 0.00 | 0.00 | 91 | 1016.9 |
| 20260906132808 | 23 | 30 | 6.4 | 9.7 | 0.00 | 0.00 | 0.00 | 91 | 1017.0 |
| 20260906132306 | 23 | 17 | 4.8 | 11.3 | 0.00 | 0.00 | 0.00 | 91 | 1016.9 |
| 20260906131758 | 23 | 55 | 8.0 | 11.3 | 0.00 | 0.00 | 0.00 | 92 | 1016.9 |
| 20260906131254 | 23 | 51 | 11.3 | 14.5 | 0.00 | 0.00 | 0.00 | 92 | 1017.2 |
| 20260906130749 | 23 | 31 | 8.0 | 11.3 | 0.00 | 0.00 | 0.00 | 92 | 1017.1 |
| 20260906130244 | 23 | 30 | 8.0 | 11.3 | 0.00 | 0.00 | 0.00 | 92 | 1017.0 |
| 20260906125742 | 23 | 27 | 3.2 | 9.7 | 0.00 | 0.00 | 0.00 | 92 | 1016.9 |
| 20260906125241 | 23 | 50 | 6.4 | 9.7 | 0.00 | 0.00 | 0.00 | 93 | 1017.1 |
| 20260906124735 | 22 | 61 | 8.0 | 8.0 | 0.00 | 0.00 | 0.00 | 93 | 1017.0 |
| 20260906124232 | 22 | 47 | 3.2 | 16.1 | 0.00 | 0.00 | 0.00 | 93 | 1016.9 |
| 20260906123730 | 22 | 50 | 8.0 | 12.9 | 0.00 | 0.00 | 0.00 | 93 | 1016.9 |
| 20260906123225 | 22 | 47 | 12.9 | 12.9 | 0.00 | 0.00 | 0.00 | 94 | 1016.8 |
| 20260906122725 | 22 | 19 | 4.8 | 12.9 | 0.00 | 0.00 | 0.00 | 94 | 1016.7 |
| 20260906122220 | 22 | 36 | 11.3 | 16.1 | 0.00 | 0.00 | 0.00 | 94 | 1016.6 |
| 20260906121717 | 22 | 29 | 8.0 | 12.9 | 0.00 | 0.00 | 0.00 | 94 | 1016.7 |
| 20260906121213 | 22 | 29 | 9.7 | 17.7 | 0.00 | 0.00 | 0.00 | 94 | 1016.5 |
| 20260906120708 | 22 | 38 | 8.0 | 11.3 | 0.00 | 0.00 | 0.00 | 94 | 1016.4 |
| 20260906120205 | 22 | 61 | 6.4 | 8.0 | 0.00 | 0.00 | 0.00 | 94 | 1016.4 |
| 20260906115700 | 22 | 45 | 9.7 | 9.7 | 0.00 | 0.00 | 0.00 | 94 | 1016.2 |
| 20260906115155 | 22 | 71 | 6.4 | 8.0 | 0.00 | 0.00 | 0.00 | 94 | 1016.2 |
| 20260906114654 | 22 | 84 | 1.6 | 6.4 | 0.00 | 0.00 | 0.00 | 94 | 1016.2 |
| 20260906114150 | 22 | 55 | 8.0 | 11.3 | 0.00 | 0.00 | 0.00 | 94 | 1016.1 |
| 20260906113649 | 22 | 42 | 9.7 | 11.3 | 0.00 | 0.00 | 0.00 | 94 | 1016.1 |
| 20260906113144 | 22 | 55 | 4.8 | 9.7 | 0.00 | 0.00 | 0.00 | 94 | 1016.1 |
| 20260906112643 | 22 | 52 | 4.8 | 6.4 | 0.00 | 0.00 | 0.00 | 94 | 1015.9 |
| 20260906112140 | 22 | 46 | 6.4 | 11.3 | 0.00 | 0.00 | 0.00 | 94 | 1015.9 |
| 20260906111639 | 23 | 45 | 6.4 | 9.7 | 0.00 | 0.00 | 0.00 | 94 | 1016.3 |
| 20260906111134 | 23 | 42 | 9.7 | 11.3 | 0.00 | 0.00 | 0.00 | 94 | 1015.9 |
| 20260906110629 | 23 | 43 | 4.8 | 9.7 | 0.00 | 0.00 | 0.00 | 94 | 1015.8 |
| 20260906110124 | 23 | 51 | 9.7 | 11.3 | 0.00 | 0.00 | 0.00 | 94 | 1015.9 |
| 20260906105618 | 23 | 53 | 6.4 | 8.0 | 0.00 | 0.00 | 0.00 | 94 | 1015.9 |
| 20260906105114 | 23 | 46 | 8.0 | 8.0 | 0.00 | 0.00 | 0.00 | 94 | 1015.9 |
| 20260906104614 | 23 | 41 | 4.8 | 9.7 | 0.00 | 0.00 | 0.00 | 94 | 1015.6 |
| 20260906104108 | 23 | 47 | 4.8 | 6.4 | 0.00 | 0.00 | 0.00 | 94 | 1015.6 |
| 20260906103606 | 23 | 67 | 4.8 | 9.7 | 0.00 | 0.00 | 0.00 | 94 | 1015.7 |
| 20260906103102 | 23 | 49 | 4.8 | 9.7 | 0.00 | 0.00 | 0.00 | 94 | 1015.6 |
| 20260906102601 | 23 | 72 | 3.2 | 8.0 | 0.00 | 0.00 | 0.00 | 94 | 1015.5 |
| 20260906102057 | 23 | 57 | 4.8 | 6.4 | 0.00 | 0.00 | 0.00 | 94 | 1015.5 |
| 20260906101557 | 23 | 50 | 6.4 | 8.0 | 0.00 | 0.00 | 0.00 | 94 | 1015.5 |
| 20260906101051 | 23 | 59 | 0.0 | 6.4 | 0.00 | 0.00 | 0.00 | 93 | 1015.5 |
| 20260906100547 | 23 | 40 | 4.8 | 6.4 | 0.00 | 0.00 | 0.00 | 93 | 1015.6 |
| 20260906100048 | 24 | 55 | 6.4 | 11.3 | 0.00 | 0.00 | 0.00 | 93 | 1015.4 |
| 20260906095547 | 24 | 64 | 3.2 | 8.0 | 0.00 | 0.00 | 0.00 | 94 | 1015.4 |
| 20260906095043 | 24 | 59 | 4.8 | 6.4 | 0.00 | 0.00 | 0.00 | 93 | 1015.2 |
| 20260906094542 | 24 | 53 | 6.4 | 6.4 | 0.00 | 0.00 | 0.00 | 93 | 1015.2 |
| 20260906094038 | 24 | 43 | 6.4 | 11.3 | 0.00 | 0.00 | 0.00 | 93 | 1015.3 |
| 20260906093533 | 25 | 50 | 4.8 | 9.7 | 0.00 | 0.00 | 0.00 | 92 | 1015.2 |
| 20260906093028 | 25 | 39 | 6.4 | 11.3 | 0.00 | 0.00 | 0.00 | 92 | 1015.3 |
| 20260906092523 | 25 | 10 | 3.2 | 8.0 | 0.00 | 0.00 | 0.00 | 92 | 1015.1 |
| 20260906092018 | 25 | 54 | 4.8 | 8.0 | 0.00 | 0.00 | 0.00 | 92 | 1015.3 |
| 20260906091514 | 25 | 48 | 4.8 | 9.7 | 0.00 | 0.00 | 0.00 | 92 | 1015.3 |
| 20260906091010 | 25 | 63 | 8.0 | 17.7 | 0.00 | 0.00 | 0.00 | 91 | 1015.1 |
| 20260906090505 | 25 | 11 | 8.0 | 14.5 | 0.00 | 0.00 | 0.00 | 92 | 1015.1 |
| 20260906090005 | 25 | 75 | 4.8 | 9.7 | 0.00 | 0.00 | 0.00 | 91 | 1015.1 |
| 20260906085504 | 25 | 45 | 8.0 | 8.0 | 0.00 | 0.00 | 0.00 | 91 | 1015.0 |
| 20260906085003 | 25 | 106 | 3.2 | 12.9 | 0.00 | 0.00 | 0.00 | 91 | 1015.2 |
| 20260906084458 | 25 | 63 | 9.7 | 14.5 | 0.00 | 0.00 | 0.00 | 91 | 1015.1 |
| 20260906083957 | 25 | 62 | 6.4 | 8.0 | 0.00 | 0.00 | 0.00 | 91 | 1014.9 |
| 20260906083453 | 25 | 74 | 4.8 | 8.0 | 0.00 | 0.00 | 0.00 | 91 | 1015.1 |
| 20260906082952 | 25 | 50 | 6.4 | 8.0 | 0.00 | 0.00 | 0.00 | 91 | 1014.8 |
| 20260906082448 | 26 | 77 | 3.2 | 9.7 | 0.00 | 0.00 | 0.00 | 91 | 1014.8 |
| 20260906081943 | 26 | 83 | 3.2 | 8.0 | 0.00 | 0.00 | 0.00 | 91 | 1014.8 |
| 20260906081444 | 26 | 57 | 9.7 | 11.3 | 0.00 | 0.00 | 0.00 | 91 | 1014.7 |
| 20260906080940 | 26 | 65 | 9.7 | 11.3 | 0.00 | 0.00 | 0.00 | 91 | 1014.6 |
| 20260906080436 | 26 | 58 | 6.4 | 8.0 | 0.00 | 0.00 | 0.00 | 91 | 1014.7 |
| 20260906075931 | 26 | 99 | 1.6 | 6.4 | 0.00 | 0.00 | 0.00 | 91 | 1014.6 |
| 20260906075426 | 26 | 60 | 8.0 | 14.5 | 0.00 | 0.00 | 0.00 | 90 | 1014.6 |
| 20260906074921 | 26 | 70 | 3.2 | 8.0 | 0.00 | 0.00 | 0.00 | 90 | 1014.9 |
| 20260906074421 | 26 | 72 | 4.8 | 9.7 | 0.00 | 0.00 | 0.00 | 90 | 1014.8 |
| 20260906073920 | 26 | 52 | 11.3 | 11.3 | 0.00 | 0.00 | 0.00 | 90 | 1014.9 |
| 20260906073415 | 27 | 65 | 4.8 | 9.7 | 0.00 | 0.00 | 0.00 | 89 | 1014.8 |
| 20260906072911 | 27 | 96 | 3.2 | 11.3 | 0.00 | 0.00 | 0.00 | 89 | 1014.8 |
| 20260906072406 | 27 | 87 | 3.2 | 11.3 | 0.00 | 0.00 | 0.00 | 88 | 1014.7 |
| 20260906071902 | 27 | 61 | 9.7 | 14.5 | 0.00 | 0.00 | 0.00 | 89 | 1014.8 |
| 20260906071357 | 27 | 91 | 3.2 | 6.4 | 0.00 | 0.00 | 0.00 | 89 | 1014.8 |
| 20260906070853 | 27 | 58 | 6.4 | 6.4 | 0.00 | 0.00 | 0.00 | 89 | 1014.8 |
| 20260906070349 | 27 | 67 | 4.8 | 8.0 | 0.00 | 0.00 | 0.00 | 88 | 1014.9 |
| 20260906065844 | 27 | 89 | 3.2 | 6.4 | 0.00 | 0.00 | 0.00 | 88 | 1014.7 |
| 20260906065338 | 27 | 107 | 3.2 | 4.8 | 0.00 | 0.00 | 0.00 | 87 | 1014.8 |
| 20260906064834 | 27 | 67 | 4.8 | 8.0 | 0.00 | 0.00 | 0.00 | 87 | 1014.6 |
| 20260906064331 | 27 | 60 | 1.6 | 4.8 | 0.00 | 0.00 | 0.00 | 87 | 1014.6 |
| 20260906063830 | 27 | 86 | 1.6 | 6.4 | 0.00 | 0.00 | 0.00 | 87 | 1014.8 |
| 20260906063326 | 27 | 74 | 4.8 | 8.0 | 0.00 | 0.00 | 0.00 | 86 | 1014.8 |
| 20260906062821 | 28 | 82 | 3.2 | 3.2 | 0.00 | 0.00 | 0.00 | 86 | 1014.8 |
| 20260906062320 | 28 | 71 | 3.2 | 3.2 | 0.00 | 0.00 | 0.00 | 85 | 1014.7 |
| 20260906061816 | 28 | 102 | 3.2 | 4.8 | 0.00 | 0.00 | 0.00 | 85 | 1014.7 |
| 20260906061312 | 28 | 72 | 4.8 | 8.0 | 0.00 | 0.00 | 0.00 | 85 | 1014.8 |
| 20260906060807 | 28 | 78 | 4.8 | 6.4 | 0.00 | 0.00 | 0.00 | 84 | 1014.9 |
| 20260906060305 | 28 | 100 | 3.2 | 4.8 | 0.00 | 0.00 | 0.00 | 84 | 1014.9 |
| 20260906055800 | 28 | 99 | 4.8 | 6.4 | 0.00 | 0.00 | 0.00 | 84 | 1014.7 |
| 20260906055255 | 28 | 69 | 1.6 | 4.8 | 0.00 | 0.00 | 0.00 | 84 | 1014.7 |
| 20260906054750 | 28 | 100 | 3.2 | 4.8 | 0.00 | 0.00 | 0.00 | 83 | 1014.9 |
| 20260906054246 | 28 | 91 | 1.6 | 8.0 | 0.00 | 0.00 | 0.00 | 83 | 1014.7 |
| 20260906053742 | 28 | 59 | 3.2 | 4.8 | 0.00 | 0.00 | 0.00 | 83 | 1014.7 |
| 20260906053238 | 28 | 70 | 4.8 | 4.8 | 0.00 | 0.00 | 0.00 | 83 | 1014.6 |
| 20260906052732 | 28 | 62 | 3.2 | 3.2 | 0.00 | 0.00 | 0.00 | 82 | 1014.7 |
| 20260906052229 | 28 | 83 | 3.2 | 4.8 | 0.00 | 0.00 | 0.00 | 82 | 1014.9 |
| 20260906051726 | 28 | 81 | 3.2 | 6.4 | 0.00 | 0.00 | 0.00 | 81 | 1014.9 |
| 20260906051225 | 28 | 75 | 4.8 | 6.4 | 0.00 | 0.00 | 0.00 | 81 | 1014.7 |
| 20260906050720 | 29 | 68 | 4.8 | 6.4 | 0.00 | 0.00 | 0.00 | 80 | 1014.8 |
| 20260906050216 | 29 | 61 | 4.8 | 6.4 | 0.00 | 0.00 | 0.00 | 80 | 1014.8 |
| 20260906045714 | 29 | 51 | 4.8 | 8.0 | 0.00 | 0.00 | 0.00 | 80 | 1014.8 |
| 20260906045209 | 29 | 79 | 3.2 | 6.4 | 0.00 | 0.00 | 0.00 | 80 | 1014.6 |
| 20260906044705 | 29 | 96 | 3.2 | 6.4 | 0.00 | 0.00 | 0.00 | 79 | 1014.6 |
| 20260906044200 | 29 | 88 | 3.2 | 4.8 | 0.00 | 0.00 | 0.00 | 79 | 1014.4 |
| 20260906043656 | 29 | 62 | 3.2 | 4.8 | 0.00 | 0.00 | 0.00 | 79 | 1014.5 |
| 20260906043151 | 29 | 59 | 3.2 | 4.8 | 0.00 | 0.00 | 0.00 | 79 | 1014.5 |
| 20260906042651 | 29 | 65 | 3.2 | 4.8 | 0.00 | 0.00 | 0.00 | 79 | 1014.5 |
| 20260906042145 | 29 | 108 | 0.0 | 3.2 | 0.00 | 0.00 | 0.00 | 78 | 1014.5 |
| 20260906041641 | 29 | 70 | 3.2 | 4.8 | 0.00 | 0.00 | 0.00 | 78 | 1014.5 |
| 20260906041136 | 30 | 82 | 3.2 | 4.8 | 0.00 | 0.00 | 0.00 | 78 | 1014.3 |
| 20260906040631 | 30 | 53 | 4.8 | 4.8 | 0.00 | 0.00 | 0.00 | 77 | 1014.3 |
| 20260906040127 | 30 | 65 | 3.2 | 3.2 | 0.00 | 0.00 | 0.00 | 77 | 1014.0 |
| 20260906035622 | 30 | 64 | 3.2 | 4.8 | 0.00 | 0.00 | 0.00 | 77 | 1014.2 |
| 20260906035118 | 30 | 68 | 0.0 | 4.8 | 0.00 | 0.00 | 0.00 | 77 | 1014.2 |
| 20260906034617 | 30 | 69 | 3.2 | 6.4 | 0.00 | 0.00 | 0.00 | 76 | 1014.2 |
| 20260906034112 | 30 | 41 | 4.8 | 4.8 | 0.00 | 0.00 | 0.00 | 76 | 1014.4 |
| 20260906033608 | 30 | 36 | 6.4 | 8.0 | 0.00 | 0.00 | 0.00 | 76 | 1014.2 |
| 20260906033103 | 30 | 101 | 1.6 | 3.2 | 0.00 | 0.00 | 0.00 | 76 | 1014.1 |
| 20260906032600 | 30 | 81 | 1.6 | 4.8 | 0.00 | 0.00 | 0.00 | 76 | 1014.1 |
| 20260906032059 | 30 | 49 | 4.8 | 6.4 | 0.00 | 0.00 | 0.00 | 76 | 1014.2 |
| 20260906031555 | 30 | 63 | 3.2 | 3.2 | 0.00 | 0.00 | 0.00 | 76 | 1014.1 |
| 20260906031050 | 30 | 111 | 1.6 | 4.8 | 0.00 | 0.00 | 0.00 | 76 | 1013.9 |
| 20260906030549 | 30 | 56 | 3.2 | 4.8 | 0.00 | 0.00 | 0.00 | 76 | 1013.8 |
| 20260906030044 | 30 | 117 | 0.0 | 1.6 | 0.00 | 0.00 | 0.00 | 75 | 1013.9 |
| 20260906025544 | 30 | 84 | 0.0 | 4.8 | 0.00 | 0.00 | 0.00 | 74 | 1014.0 |
| 20260906025042 | 30 | 81 | 1.6 | 3.2 | 0.00 | 0.00 | 0.00 | 74 | 1013.8 |
| 20260906024538 | 30 | 68 | 1.6 | 3.2 | 0.00 | 0.00 | 0.00 | 74 | 1013.8 |
| 20260906024037 | 30 | 98 | 0.0 | 8.0 | 0.00 | 0.00 | 0.00 | 73 | 1013.5 |
| 20260906023534 | 30 | 63 | 3.2 | 3.2 | 0.00 | 0.00 | 0.00 | 73 | 1013.6 |
| 20260906023028 | 30 | 87 | 3.2 | 4.8 | 0.00 | 0.00 | 0.00 | 73 | 1013.5 |
| 20260906022523 | 30 | 58 | 1.6 | 3.2 | 0.00 | 0.00 | 0.00 | 72 | 1013.4 |
| 20260906022019 | 30 | 57 | 0.0 | 1.6 | 0.00 | 0.00 | 0.00 | 71 | 1013.3 |
| 20260906021514 | 30 | 75 | 3.2 | 3.2 | 0.00 | 0.00 | 0.00 | 71 | 1013.3 |
| 20260906021008 | 30 | 44 | 0.0 | 3.2 | 0.00 | 0.00 | 0.00 | 71 | 1013.3 |
| 20260906020508 | 30 | 37 | 0.0 | 1.6 | 0.00 | 0.00 | 0.00 | 71 | 1013.0 |
| 20260906020007 | 30 | 43 | 3.2 | 3.2 | 0.00 | 0.00 | 0.00 | 71 | 1013.1 |
| 20260906015506 | 31 | 76 | 0.0 | 6.4 | 0.00 | 0.00 | 0.00 | 70 | 1012.9 |
| 20260906015001 | 31 | 84 | 1.6 | 4.8 | 0.00 | 0.00 | 0.00 | 70 | 1012.9 |
| 20260906014455 | 31 | 62 | 3.2 | 4.8 | 0.00 | 0.00 | 0.00 | 70 | 1013.0 |
| 20260906013951 | 31 | 88 | 1.6 | 1.6 | 0.00 | 0.00 | 0.00 | 70 | 1012.7 |
| 20260906013447 | 31 | 70 | 3.2 | 4.8 | 0.00 | 0.00 | 0.00 | 69 | 1012.9 |
| 20260906012942 | 31 | 66 | 3.2 | 4.8 | 0.00 | 0.00 | 0.00 | 69 | 1012.6 |
| 20260906012437 | 31 | 89 | 0.0 | 3.2 | 0.00 | 0.00 | 0.00 | 69 | 1012.6 |
| 20260906011936 | 31 | 117 | 0.0 | 3.2 | 0.00 | 0.00 | 0.00 | 68 | 1012.6 |
| 20260906011432 | 31 | 89 | 0.0 | 3.2 | 0.00 | 0.00 | 0.00 | 68 | 1012.6 |
| 20260906010927 | 31 | 358 | 3.2 | 3.2 | 0.00 | 0.00 | 0.00 | 68 | 1012.4 |
| 20260906010422 | 31 | 78 | 1.6 | 3.2 | 0.00 | 0.00 | 0.00 | 67 | 1012.3 |
| 20260906005918 | 32 | 71 | 0.0 | 3.2 | 0.00 | 0.00 | 0.00 | 66 | 1012.4 |
| 20260906005418 | 32 | 35 | 3.2 | 3.2 | 0.00 | 0.00 | 0.00 | 65 | 1012.3 |
| 20260906004916 | 32 | 34 | 3.2 | 4.8 | 0.00 | 0.00 | 0.00 | 65 | 1012.4 |
| 20260906004411 | 32 | 54 | 3.2 | 4.8 | 0.00 | 0.00 | 0.00 | 64 | 1012.4 |
| 20260906003906 | 32 | 57 | 3.2 | 6.4 | 0.00 | 0.00 | 0.00 | 64 | 1012.3 |
| 20260906003402 | 32 | 69 | 1.6 | 6.4 | 0.00 | 0.00 | 0.00 | 63 | 1012.4 |
| 20260906002857 | 32 | 72 | 4.8 | 6.4 | 0.00 | 0.00 | 0.00 | 62 | 1012.3 |
| 20260906002356 | 32 | 72 | 4.8 | 4.8 | 0.00 | 0.00 | 0.00 | 61 | 1012.3 |
| 20260906001852 | 33 | 35 | 6.4 | 8.0 | 0.00 | 0.00 | 0.00 | 60 | 1012.4 |
| 20260906001348 | 33 | 6 | 8.0 | 8.0 | 0.00 | 0.00 | 0.00 | 59 | 1012.6 |
| 20260906000842 | 33 | 36 | 3.2 | 6.4 | 0.00 | 0.00 | 0.00 | 59 | 1012.5 |
| 20260906000343 | 33 | 54 | 4.8 | 9.7 | 0.00 | 0.00 | 0.00 | 58 | 1012.6 |
| 20260905235843 | 33 | 40 | 6.4 | 8.0 | 0.00 | 0.00 | 0.00 | 57 | 1012.5 |
| 20260905235337 | 34 | 29 | 3.2 | 6.4 | 0.00 | 0.00 | 0.00 | 57 | 1012.4 |
| 20260905234832 | 34 | 56 | 4.8 | 4.8 | 0.00 | 0.00 | 0.00 | 57 | 1012.5 |
| 20260905234327 | 34 | 22 | 3.2 | 4.8 | 0.00 | 0.00 | 0.00 | 56 | 1012.3 |
| 20260905233822 | 34 | 60 | 1.6 | 8.0 | 0.00 | 0.00 | 0.00 | 55 | 1012.4 |
| 20260905233317 | 35 | 51 | 8.0 | 9.7 | 0.00 | 0.00 | 0.00 | 55 | 1012.4 |
| 20260905232817 | 35 | 29 | 1.6 | 6.4 | 0.00 | 0.00 | 0.00 | 54 | 1012.7 |
| 20260905232313 | 35 | 21 | 6.4 | 8.0 | 0.00 | 0.00 | 0.00 | 54 | 1012.4 |
| 20260905231809 | 35 | 8 | 3.2 | 6.4 | 0.00 | 0.00 | 0.00 | 53 | 1012.5 |
| 20260905231303 | 35 | 42 | 3.2 | 4.8 | 0.00 | 0.00 | 0.00 | 53 | 1012.5 |
| 20260905230800 | 35 | 40 | 0.0 | 4.8 | 0.00 | 0.00 | 0.00 | 53 | 1012.5 |
| 20260905230257 | 35 | 48 | 3.2 | 4.8 | 0.00 | 0.00 | 0.00 | 52 | 1012.5 |
| 20260905225757 | 35 | 35 | 4.8 | 6.4 | 0.00 | 0.00 | 0.00 | 52 | 1012.6 |
| 20260905225252 | 35 | 45 | 4.8 | 4.8 | 0.00 | 0.00 | 0.00 | 52 | 1012.5 |
| 20260905224752 | 35 | 92 | 1.6 | 4.8 | 0.00 | 0.00 | 0.00 | 53 | 1012.6 |
| 20260905224248 | 35 | 61 | 3.2 | 6.4 | 0.00 | 0.00 | 0.00 | 52 | 1012.4 |
| 20260905223743 | 35 | 48 | 4.8 | 4.8 | 0.00 | 0.00 | 0.00 | 51 | 1012.2 |
| 20260905223240 | 35 | 66 | 8.0 | 8.0 | 0.00 | 0.00 | 0.00 | 51 | 1012.0 |
| 20260905222735 | 36 | 54 | 4.8 | 9.7 | 0.00 | 0.00 | 0.00 | 50 | 1012.1 |
| 20260905222234 | 36 | 37 | 6.4 | 9.7 | 0.00 | 0.00 | 0.00 | 49 | 1012.2 |
| 20260905221730 | 36 | 31 | 3.2 | 9.7 | 0.00 | 0.00 | 0.00 | 49 | 1012.4 |
| 20260905221227 | 36 | 22 | 8.0 | 16.1 | 0.00 | 0.00 | 0.00 | 49 | 1012.4 |
| 20260905220723 | 37 | 56 | 4.8 | 11.3 | 0.00 | 0.00 | 0.00 | 49 | 1012.3 |
| 20260905220219 | 37 | 341 | 4.8 | 9.7 | 0.00 | 0.00 | 0.00 | 48 | 1012.4 |
| 20260905215718 | 37 | 21 | 6.4 | 9.7 | 0.00 | 0.00 | 0.00 | 48 | 1012.5 |
| 20260905215214 | 37 | 62 | 9.7 | 11.3 | 0.00 | 0.00 | 0.00 | 48 | 1012.4 |
| 20260905214709 | 37 | 342 | 4.8 | 9.7 | 0.00 | 0.00 | 0.00 | 48 | 1012.3 |
| 20260905214205 | 37 | 26 | 1.6 | 8.0 | 0.00 | 0.00 | 0.00 | 45 | 1012.4 |
| 20260905213700 | 37 | 19 | 4.8 | 8.0 | 0.00 | 0.00 | 0.00 | 47 | 1012.3 |
| 20260905213156 | 37 | 41 | 4.8 | 8.0 | 0.00 | 0.00 | 0.00 | 46 | 1012.3 |
| 20260905212651 | 37 | 358 | 8.0 | 11.3 | 0.00 | 0.00 | 0.00 | 47 | 1012.5 |
| 20260905212150 | 37 | 356 | 4.8 | 8.0 | 0.00 | 0.00 | 0.00 | 48 | 1012.3 |
| 20260905211644 | 37 | 261 | 0.0 | 8.0 | 0.00 | 0.00 | 0.00 | 47 | 1012.3 |
| 20260905211140 | 37 | 98 | 1.6 | 6.4 | 0.00 | 0.00 | 0.00 | 47 | 1012.5 |
| 20260905210637 | 37 | 303 | 3.2 | 9.7 | 0.00 | 0.00 | 0.00 | 47 | 1012.5 |
| 20260905210131 | 37 | 53 | 1.6 | 8.0 | 0.00 | 0.00 | 0.00 | 48 | 1012.8 |
| 20260905205630 | 37 | 10 | 8.0 | 8.0 | 0.00 | 0.00 | 0.00 | 47 | 1012.8 |
| 20260905205124 | 37 | 343 | 6.4 | 8.0 | 0.00 | 0.00 | 0.00 | 48 | 1012.7 |
| 20260905204624 | 37 | 5 | 4.8 | 9.7 | 0.00 | 0.00 | 0.00 | 49 | 1012.8 |
| 20260905204119 | 36 | 44 | 4.8 | 11.3 | 0.00 | 0.00 | 0.00 | 51 | 1012.7 |
| 20260905203614 | 36 | 56 | 4.8 | 16.1 | 0.00 | 0.00 | 0.00 | 51 | 1012.7 |
| 20260905203109 | 36 | 51 | 8.0 | 11.3 | 0.00 | 0.00 | 0.00 | 51 | 1012.8 |
| 20260905202604 | 36 | 33 | 14.5 | 17.7 | 0.00 | 0.00 | 0.00 | 50 | 1012.8 |
| 20260905202059 | 37 | 61 | 6.4 | 11.3 | 0.00 | 0.00 | 0.00 | 50 | 1012.7 |
| 20260905201555 | 37 | 66 | 3.2 | 14.5 | 0.00 | 0.00 | 0.00 | 50 | 1012.7 |
| 20260905201054 | 37 | 349 | 6.4 | 11.3 | 0.00 | 0.00 | 0.00 | 51 | 1012.7 |
| 20260905200549 | 37 | 23 | 4.8 | 16.1 | 0.00 | 0.00 | 0.00 | 51 | 1012.9 |
| 20260905200044 | 37 | 13 | 6.4 | 12.9 | 0.00 | 0.00 | 0.00 | 49 | 1013.0 |
| 20260905195538 | 38 | 172 | 3.2 | 14.5 | 0.00 | 0.00 | 0.00 | 49 | 1013.0 |
| 20260905195034 | 37 | 263 | 4.8 | 6.4 | 0.00 | 0.00 | 0.00 | 46 | 1012.9 |
| 20260905194533 | 37 | 287 | 3.2 | 12.9 | 0.00 | 0.00 | 0.00 | 44 | 1013.0 |
| 20260905194033 | 38 | 299 | 1.6 | 9.7 | 0.00 | 0.00 | 0.00 | 44 | 1012.8 |
| 20260905193527 | 38 | 21 | 3.2 | 12.9 | 0.00 | 0.00 | 0.00 | 43 | 1013.0 |
| 20260905193023 | 39 | 255 | 0.0 | 3.2 | 0.00 | 0.00 | 0.00 | 43 | 1013.2 |
| 20260905192518 | 38 | 262 | 4.8 | 11.3 | 0.00 | 0.00 | 0.00 | 46 | 1013.3 |
| 20260905192015 | 38 | 33 | 3.2 | 8.0 | 0.00 | 0.00 | 0.00 | 44 | 1013.4 |
| 20260905191513 | 38 | 234 | 4.8 | 12.9 | 0.00 | 0.00 | 0.00 | 44 | 1013.4 |
| 20260905191012 | 37 | 303 | 0.0 | 6.4 | 0.00 | 0.00 | 0.00 | 46 | 1013.4 |
| 20260905190510 | 37 | 205 | 4.8 | 9.7 | 0.00 | 0.00 | 0.00 | 45 | 1013.4 |
| 20260905190010 | 37 | 279 | 3.2 | 9.7 | 0.00 | 0.00 | 0.00 | 44 | 1013.5 |
| 20260905185504 | 37 | 2 | 4.8 | 14.5 | 0.00 | 0.00 | 0.00 | 45 | 1013.5 |
| 20260905185003 | 38 | 34 | 1.6 | 9.7 | 0.00 | 0.00 | 0.00 | 47 | 1013.6 |
| 20260905184458 | 38 | 45 | 6.4 | 14.5 | 0.00 | 0.00 | 0.00 | 45 | 1013.7 |
| 20260905183957 | 37 | 28 | 4.8 | 4.8 | 0.00 | 0.00 | 0.00 | 45 | 1013.7 |
| 20260905183456 | 37 | 253 | 6.4 | 22.5 | 0.00 | 0.00 | 0.00 | 46 | 1013.8 |
| 20260905182951 | 37 | 33 | 4.8 | 4.8 | 0.00 | 0.00 | 0.00 | 48 | 1014.0 |
| 20260905182451 | 37 | 359 | 3.2 | 9.7 | 0.00 | 0.00 | 0.00 | 50 | 1013.9 |
| 20260905181946 | 37 | 266 | 0.0 | 4.8 | 0.00 | 0.00 | 0.00 | 49 | 1013.8 |
| 20260905181441 | 37 | 24 | 3.2 | 6.4 | 0.00 | 0.00 | 0.00 | 49 | 1013.8 |
| 20260905180940 | 36 | 77 | 3.2 | 11.3 | 0.00 | 0.00 | 0.00 | 51 | 1014.1 |
| 20260905180435 | 37 | 176 | 1.6 | 9.7 | 0.00 | 0.00 | 0.00 | 50 | 1014.1 |
| 20260905175930 | 36 | 143 | 1.6 | 8.0 | 0.00 | 0.00 | 0.00 | 52 | 1014.2 |
| 20260905175429 | 36 | 30 | 8.0 | 11.3 | 0.00 | 0.00 | 0.00 | 52 | 1014.3 |
| 20260905174925 | 36 | 44 | 4.8 | 9.7 | 0.00 | 0.00 | 0.00 | 53 | 1014.1 |
| 20260905174420 | 37 | 135 | 1.6 | 3.2 | 0.00 | 0.00 | 0.00 | 53 | 1014.2 |
| 20260905173916 | 36 | 297 | 3.2 | 8.0 | 0.00 | 0.00 | 0.00 | 51 | 1014.2 |
| 20260905173413 | 37 | 179 | 1.6 | 4.8 | 0.00 | 0.00 | 0.00 | 52 | 1014.3 |
| 20260905172912 | 36 | 32 | 1.6 | 8.0 | 0.00 | 0.00 | 0.00 | 53 | 1014.3 |
| 20260905172410 | 36 | 26 | 1.6 | 4.8 | 0.00 | 0.00 | 0.00 | 53 | 1014.3 |
| 20260905171907 | 35 | 40 | 9.7 | 11.3 | 0.00 | 0.00 | 0.00 | 54 | 1014.4 |
| 20260905171403 | 35 | 10 | 4.8 | 6.4 | 0.00 | 0.00 | 0.00 | 57 | 1014.5 |
| 20260905170859 | 36 | 39 | 4.8 | 8.0 | 0.00 | 0.00 | 0.00 | 53 | 1014.7 |
| 20260905170355 | 36 | 338 | 3.2 | 9.7 | 0.00 | 0.00 | 0.00 | 54 | 1014.8 |
| 20260905165854 | 35 | 339 | 1.6 | 9.7 | 0.00 | 0.00 | 0.00 | 55 | 1014.8 |
| 20260905165349 | 35 | 104 | 1.6 | 9.7 | 0.00 | 0.00 | 0.00 | 55 | 1014.9 |
| 20260905164844 | 35 | 19 | 4.8 | 8.0 | 0.00 | 0.00 | 0.00 | 55 | 1014.8 |
| 20260905164339 | 35 | 12 | 1.6 | 6.4 | 0.00 | 0.00 | 0.00 | 57 | 1014.9 |
| 20260905163835 | 36 | 3 | 4.8 | 8.0 | 0.00 | 0.00 | 0.00 | 53 | 1014.8 |
| 20260905163331 | 36 | 333 | 0.0 | 3.2 | 0.00 | 0.00 | 0.00 | 56 | 1015.0 |
| 20260905162827 | 35 | 252 | 3.2 | 4.8 | 0.00 | 0.00 | 0.00 | 55 | 1014.9 |
| 20260905162326 | 35 | 52 | 3.2 | 4.8 | 0.00 | 0.00 | 0.00 | 56 | 1015.0 |
| 20260905161827 | 35 | 27 | 4.8 | 4.8 | 0.00 | 0.00 | 0.00 | 57 | 1015.1 |
| 20260905161326 | 35 | 26 | 1.6 | 4.8 | 0.00 | 0.00 | 0.00 | 57 | 1015.0 |
| 20260905160825 | 35 | 277 | 1.6 | 4.8 | 0.00 | 0.00 | 0.00 | 57 | 1015.1 |
| 20260905160319 | 34 | 220 | 4.8 | 6.4 | 0.00 | 0.00 | 0.00 | 59 | 1015.1 |
| 20260905155814 | 35 | 202 | 4.8 | 4.8 | 0.00 | 0.00 | 0.00 | 58 | 1015.0 |
| 20260905155313 | 34 | 309 | 3.2 | 8.0 | 0.00 | 0.00 | 0.00 | 58 | 1015.0 |
| 20260905154807 | 34 | 274 | 3.2 | 8.0 | 0.00 | 0.00 | 0.00 | 60 | 1015.2 |
| 20260905154303 | 33 | 252 | 4.8 | 8.0 | 0.00 | 0.00 | 0.00 | 60 | 1014.9 |
| 20260905153758 | 34 | 186 | 0.0 | 3.2 | 0.00 | 0.00 | 0.00 | 60 | 1015.1 |
| 20260905153254 | 33 | 60 | 4.8 | 4.8 | 0.00 | 0.00 | 0.00 | 60 | 1015.1 |
| 20260905152748 | 33 | 245 | 1.6 | 4.8 | 0.00 | 0.00 | 0.00 | 61 | 1015.1 |
| 20260905152242 | 33 | 294 | 3.2 | 4.8 | 0.00 | 0.00 | 0.00 | 61 | 1015.1 |
| 20260905151742 | 33 | 285 | 0.0 | 4.8 | 0.00 | 0.00 | 0.00 | 62 | 1015.2 |
| 20260905151238 | 33 | 49 | 0.0 | 6.4 | 0.00 | 0.00 | 0.00 | 63 | 1015.4 |
| 20260905150738 | 32 | 285 | 4.8 | 4.8 | 0.00 | 0.00 | 0.00 | 62 | 1015.2 |